Ozark, AL

11:13 PM CDT on July 23, 2017 (GMT -0500)
Cairns Army Air Field

Weather History for KOZR - February, 2013

Change the Weather History Date:

Tuesday, February 19, 2013

  Actual Average Record
Temperature  
Mean Temperature 55 °F -  
Max Temperature 65 °F 62 °F 78 °F (2014)
Min Temperature 43 °F 41 °F 23 °F (2007)
Degree Days  
Heating Degree Days 10    
Growing Degree Days 5 (Base 50)    
Moisture  
Dew Point 50 °F    
Average Humidity 80    
Maximum Humidity 100    
Minimum Humidity 33    
Precipitation  
Precipitation 0.17 in - - ()
Sea Level Pressure  
Sea Level Pressure 30.07 in    
Wind  
Wind Speed 8 mph (West)    
Max Wind Speed 14 mph    
Max Gust Speed 22 mph    
Visibility 9 miles    
Events Rain    
Averages and records for this station are not official NWS values.
T = Trace of Precipitation, MM = Missing Value Source: NWS Daily Summary

Daily Weather History Graph

Daily Weather History Graph

Search for Another Location

Airport or City:

Trip Planner

Search our weather history database for the weather conditions in past years. The results will help you decide how hot, cold, wet, or windy it might be!

Date:

Astronomy

Feb. 19, 2013 Rise Set
Actual Time 6:20 AM CST 5:33 PM CST
Civil Twilight 5:55 AM CST 5:58 PM CST
Nautical Twilight 5:27 AM CST 6:26 PM CST
Astronomical Twilight 4:58 AM CST 6:54 PM CST
Moon 12:16 PM CST (2/19) 1:40 AM CST (2/19)
Length of Visible Light 12h 02m
Length of Day
11h 13m
Waxing Gibbous, 67% of the Moon is Illuminated
Feb 19
Waxing Gibbous
Feb 25
Full
Mar 4
Last Quarter
Mar 11
New
Mar 19
First Quarter

Hourly Weather History & Observations

Time (CST) Temp. Windchill Dew Point Humidity Pressure Visibility Wind Dir Wind Speed Gust Speed Precip Events Conditions
12:58 AM 46.0 °F 42.5 °F 36.1 °F 68% 30.11 in 10.0 mi SE 6.9 mph - N/A   Partly Cloudy
1:58 AM 47.7 °F - 37.9 °F 69% 30.10 in 10.0 mi SSE 5.8 mph - N/A   Overcast
2:58 AM 48.2 °F - 39.9 °F 73% 30.05 in 10.0 mi SSE 10.4 mph - N/A   Overcast
3:58 AM 49.5 °F - 43.0 °F 78% 30.03 in 10.0 mi SSE 9.2 mph - N/A   Overcast
4:30 AM 50.0 °F - 44.6 °F 82% 30.03 in 10.0 mi SSE 8.1 mph - N/A Rain Light Rain
4:44 AM 51.8 °F - 46.4 °F 82% 30.03 in 10.0 mi SSE 6.9 mph - N/A   Mostly Cloudy
4:58 AM 51.4 °F - 46.6 °F 83% 30.03 in 10.0 mi SSE 6.9 mph - 0.00 in   Mostly Cloudy
5:02 AM 51.8 °F - 46.4 °F 82% 30.02 in 10.0 mi SSE 6.9 mph - N/A Rain Light Rain
5:18 AM 51.8 °F - 48.2 °F 88% 30.02 in 10.0 mi SSE 8.1 mph - N/A   Mostly Cloudy
5:58 AM 54.3 °F - 50.7 °F 88% 30.03 in 10.0 mi South 10.4 mph - 0.00 in   Mostly Cloudy
6:44 AM 57.2 °F - 53.6 °F 88% 30.02 in 10.0 mi South 12.7 mph - N/A Rain Light Rain
6:58 AM 57.2 °F - 53.6 °F 88% 30.03 in 9.0 mi South 13.8 mph - 0.00 in Rain Light Rain
7:04 AM 57.2 °F - 53.6 °F 88% 30.02 in 10.0 mi South 12.7 mph 21.9 mph N/A   Mostly Cloudy
7:08 AM 57.2 °F - 53.6 °F 88% 30.02 in 10.0 mi South 11.5 mph - N/A Rain Light Rain
7:43 AM 57.2 °F - 55.4 °F 94% 30.04 in 8.0 mi South 9.2 mph - N/A Rain Light Rain
7:58 AM 57.4 °F - 55.8 °F 94% 30.05 in 5.0 mi South 9.2 mph - 0.02 in Rain Light Rain
8:01 AM 57.2 °F - 55.4 °F 94% 30.04 in 6.0 mi South 9.2 mph - N/A Rain Light Rain
8:11 AM 57.2 °F - 57.2 °F 100% 30.05 in 4.0 mi SSW 9.2 mph - N/A Rain Light Rain
8:16 AM 57.2 °F - 57.2 °F 100% 30.05 in 3.0 mi SW 9.2 mph - N/A Rain Light Rain
8:17 AM 57.2 °F - 57.2 °F 100% 30.05 in 3.0 mi SW 9.2 mph - N/A Rain Light Rain
8:22 AM 57.2 °F - 57.2 °F 100% 30.06 in 2.0 mi WSW 12.7 mph - N/A Rain Rain
8:25 AM 57.2 °F - 57.2 °F 100% 30.05 in 2.0 mi WSW 11.5 mph - N/A Rain Rain
8:27 AM 59.0 °F - 57.2 °F 94% 30.07 in 2.5 mi WSW 10.4 mph - N/A Rain Light Rain
8:32 AM 59.0 °F - 57.2 °F 94% 30.06 in 1.5 mi SW 11.5 mph - N/A Rain Heavy Rain
8:42 AM 59.0 °F - 57.2 °F 94% 30.06 in 5.0 mi West 8.1 mph - N/A Rain Light Rain
8:47 AM 59.0 °F - 57.2 °F 94% 30.07 in 10.0 mi NW 8.1 mph - N/A Rain Light Rain
8:53 AM 59.0 °F - 57.2 °F 94% 30.07 in 10.0 mi WNW 6.9 mph - N/A   Overcast
8:56 AM 59.0 °F - 57.2 °F 94% 30.07 in 10.0 mi Variable 3.5 mph - N/A Rain Light Rain
8:58 AM 59.0 °F - 57.2 °F 94% 30.08 in 10.0 mi North 3.5 mph - 0.15 in Rain Light Rain
9:07 AM 59.0 °F - 57.2 °F 94% 30.07 in 10.0 mi WNW 5.8 mph - N/A   Light Drizzle
9:15 AM 59.0 °F - 57.2 °F 94% 30.07 in 10.0 mi WNW 8.1 mph - N/A   Overcast
9:18 AM 59.0 °F - 57.2 °F 94% 30.07 in 10.0 mi WNW 6.9 mph - N/A   Light Drizzle
9:46 AM 59.0 °F - 57.2 °F 94% 30.08 in 10.0 mi NW 8.1 mph - N/A   Overcast
9:50 AM 59.0 °F - 57.2 °F 94% 30.07 in 10.0 mi NW 5.8 mph - N/A   Overcast
9:53 AM 59.0 °F - 57.2 °F 94% 30.07 in 10.0 mi NW 4.6 mph - N/A   Overcast
9:58 AM 59.0 °F - 57.2 °F 94% 30.09 in 10.0 mi WNW 4.6 mph - 0.00 in   Overcast
10:03 AM 59.0 °F - 57.2 °F 94% 30.08 in 10.0 mi WNW 4.6 mph - N/A   Overcast
10:53 AM 60.8 °F - 57.2 °F 88% 30.09 in 10.0 mi WNW 6.9 mph - N/A   Overcast
10:58 AM 61.3 °F - 57.2 °F 86% 30.10 in 10.0 mi WNW 8.1 mph - N/A   Overcast
11:23 AM 62.6 °F - 55.4 °F 77% 30.09 in 10.0 mi NW 9.2 mph - N/A   Overcast
11:58 AM 62.6 °F - 54.3 °F 74% 30.10 in 10.0 mi NW 13.8 mph 20.7 mph N/A   Overcast
12:58 PM 60.4 °F - 51.3 °F 72% 30.10 in 10.0 mi NW 10.4 mph 17.3 mph N/A   Overcast
1:43 PM 62.6 °F - 50.0 °F 63% 30.08 in 10.0 mi NNW 8.1 mph - N/A   Scattered Clouds
1:53 PM 64.4 °F - 50.0 °F 59% 30.08 in 10.0 mi NNW 9.2 mph - N/A   Mostly Cloudy
1:58 PM 63.5 °F - 50.2 °F 62% 30.08 in 10.0 mi NNW 8.1 mph - N/A   Mostly Cloudy
2:03 PM 62.6 °F - 50.0 °F 63% 30.07 in 10.0 mi Variable 5.8 mph - N/A   Scattered Clouds
2:58 PM 65.7 °F - 44.8 °F 47% 30.09 in 10.0 mi NW 10.4 mph - N/A   Clear
3:58 PM 65.1 °F - 42.6 °F 44% 30.08 in 10.0 mi NW 5.8 mph - N/A   Clear
4:58 PM 63.1 °F - 33.8 °F 33% 30.10 in 10.0 mi NW 11.5 mph 18.4 mph N/A   Clear
6:58 PM 54.7 °F - 32.0 °F 42% 30.14 in 10.0 mi WNW 4.6 mph - N/A   Clear
7:58 PM 51.6 °F - 32.9 °F 49% 30.16 in 10.0 mi NW 5.8 mph - N/A   Clear
8:58 PM 49.1 °F - 32.7 °F 53% 30.17 in 10.0 mi NW 5.8 mph - N/A   Clear
9:58 PM 46.9 °F - 32.4 °F 57% 30.18 in 10.0 mi NW 4.6 mph - N/A   Clear
10:58 PM 45.3 °F 42.3 °F 30.9 °F 57% 30.19 in 10.0 mi NW 5.8 mph - N/A   Clear
11:58 PM 43.7 °F 41.1 °F 28.2 °F 54% 30.19 in 10.0 mi NNW 4.6 mph - N/A   Clear